Content
SEND FEEDBACK

Daily
Averages
Monthly
Summary
United States of America

BLYTHEWOOD, SOUTH CAROLINA


Home > North America > United States > South Carolina
Elevation: 383 feet     Latitude: 34 08N     Longitude: 080 52W

WEATHER
 
SELECT A DAY
Number of Records: 159,748;   Date Range: 10/15/98 - 9/30/14
 
SHARE

PRINT THIS DATA

[ ← Previous Day ]
WEATHER ALMANAC - JANUARY 23, 2013
[ Next Day → ]
[ °C ]   °F
Weather ElementAverageHighLow
Temperature40.4 °F53.1 °F (3:53 pm)28.9 °F (5:53 am)
Dewpoint20 °F30 °F (7:53 pm)8.1 °F (10:53 am)
Humidity46.9 %72 % (6:53 am)26 % (11:53 am)
Barometer30.29 in30.40 in (9:53 am)30.15 in (11:53 pm)
Wind Speed2.1 mph9.2 mph (2:53 pm)
Weather ElementAverage
Visibility9.9 mi
Wind DirectionENE (67.3 °)

Weather ElementTotal
Precipitation---
Heating Degree Days24 (Base 65)
Averaged from 22 records on January 23, 2013
WEATHER CONDITIONS BREAKOUT
WIND DIRECTION BREAKOUT
WEATHER BY HOUR - JANUARY 23, 2013
[ °C ]   °F
Local TimeTemperatureDewpointHumidityBarometerVisibilityWind DirectionWind SpeedGust SpeedPrecipitationEventsConditions
1:53 AM37.0 °F19.0 °F48 %30.30 in10.0 miCalmClear
2:53 AM37.0 °F17.1 °F44 %30.32 in10.0 miCalmClear
3:53 AM33.1 °F19.0 °F56 %30.32 in10.0 miCalmClear
4:53 AM30.0 °F19.9 °F66 %30.32 in9.0 miCalmClear
5:53 AM28.9 °F19.9 °F69 %30.34 in10.0 miCalmClear
6:53 AM28.9 °F21.0 °F72 %30.36 in10.0 miCalmClear
7:53 AM28.9 °F21.0 °F72 %30.37 in10.0 miCalmClear
8:53 AM33.1 °F9.0 °F37 %30.39 in10.0 miCalmClear
9:53 AM36.0 °F9.0 °F33 %30.40 in10.0 miSE (140°)3.5 mphClear
10:53 AM39.0 °F8.1 °F28 %30.40 in10.0 miVariable3.5 mphClear
11:53 AM42.1 °F9.0 °F26 %30.37 in10.0 miVariable3.5 mphClear
12:53 PM46.0 °F12.9 °F26 %30.32 in10.0 miSSE (160°)5.8 mphClear
1:53 PM48.0 °F14.0 °F26 %30.27 in10.0 miCalmClear
2:53 PM52.0 °F19.9 °F28 %30.25 in10.0 miWSW (250°)9.2 mphClear
3:53 PM53.1 °F21.0 °F29 %30.24 in10.0 miWest (260°)8.1 mphClear
5:53 PM51.1 °F26.1 °F38 %30.22 in10.0 miSW (220°)3.5 mphClear
6:53 PM45.0 °F28.9 °F53 %30.22 in10.0 miCalmClear
7:53 PM43.0 °F30.0 °F60 %30.21 in10.0 miCalmClear
8:53 PM44.1 °F28.9 °F55 %30.19 in10.0 miCalmClear
9:53 PM44.1 °F28.0 °F53 %30.19 in10.0 miCalmClear
10:53 PM43.0 °F28.9 °F58 %30.17 in8.0 miSSW (210°)3.5 mphClear
11:53 PM46.0 °F30.0 °F54 %30.15 in10.0 miWSW (240°)5.8 mphClear
Hourly data recorded from KCUB, located miles away from Blythewood, South Carolina







STORIES FROM OUR PARTNERS